Simultaneous Nadir Overpasses (SNOs) Predictions

Prediction of SNOs between FY3D and AQUA Satellite Orbit:

Table of predicted SNOs for the next 14.0 days since TLE Epoch: 2/22/2020
Index Date (FY3D) Time (FY3D) Lat,Lon (FY3D) SZA (FY3D ) Date (AQUA) Time (AQUA) Lat,Lon (AQUA) SZA (AQUA ) Distance(km) Time Diff (sec)
1 02/24/2020 04:26:32 -65.25, 155.09 61.48 02/24/2020 04:27:46 -65.23, 155.13 61.57 2.99 74
2 02/24/2020 05:15:44 70.12, -31.56 113.57 02/24/2020 05:15:43 70.12, -31.59 113.58 1.09 1
3 02/24/2020 06:03:34 -78.48, 160.06 76.15 02/24/2020 06:02:20 -78.68, 159.22 76.00 29.01 74
4 02/26/2020 20:47:14 -50.77, -98.66 48.68 02/26/2020 20:48:27 -50.68, -98.07 48.99 42.12 73
5 02/26/2020 21:32:10 70.05, 84.22 112.66 02/26/2020 21:32:15 70.04, 84.18 112.67 1.79 5
6 02/26/2020 22:22:08 -72.56,-104.05 70.02 02/26/2020 22:20:57 -72.55,-104.09 69.94 1.71 71
7 02/29/2020 13:48:53 69.06,-161.30 112.67 02/29/2020 13:49:03 69.07,-161.25 112.64 2.11 10
8 02/29/2020 14:38:46 -71.88, 10.52 70.30 02/29/2020 14:37:40 -71.88, 10.58 70.25 2.18 66
9 03/03/2020 06:05:16 69.09, -45.36 111.62 03/03/2020 06:05:32 69.09, -45.34 111.60 0.49 16
10 03/03/2020 06:55:08 -71.96, 126.58 71.41 03/03/2020 06:54:08 -71.96, 126.59 71.35 0.26 60
11 03/05/2020 22:21:37 69.28, 70.81 110.39 03/05/2020 22:21:59 69.28, 70.77 110.38 1.56 22




NCC Satellite Simultaneous Nadir Overpasses (SNOs) Prediction Service
